www.cux-wetter.de
Wetterdaten: Woche 26.07.10 - 01.08.10 (KW30)
Datum Zeit Temp. A. Feuchte A. Luftdruck Regen Wind Richtung Sonnenschein Solar Taupunkt Windchill Windben
26.07.2010 00:00 16,4 C 69 % 1011,5 hPa 0,0 l/m 0,9 km/h (0 Bft) SW 0,00 h 0 W/m 10,7 C 16,4 C 0,9 km/h (0 Bft)
26.07.2010 01:00 16,2 C 70 % 1011,5 hPa 0,0 l/m 1,0 km/h (0 Bft) SW 0,00 h 0 W/m 10,8 C 16,2 C 1,0 km/h (0 Bft)
26.07.2010 02:00 16,0 C 71 % 1010,9 hPa 0,0 l/m 2,7 km/h (1 Bft) S 0,00 h 0 W/m 10,8 C 16,0 C 2,7 km/h (1 Bft)
26.07.2010 03:00 16,1 C 69 % 1010,5 hPa 0,0 l/m 6,1 km/h (2 Bft) S-SW 0,00 h 0 W/m 10,4 C 15,9 C 6,1 km/h (2 Bft)
26.07.2010 04:00 16,2 C 67 % 1010,1 hPa 0,0 l/m 7,2 km/h (2 Bft) S-SW 0,00 h 0 W/m 10,1 C 15,5 C 7,2 km/h (2 Bft)
26.07.2010 05:00 16,1 C 66 % 1009,5 hPa 0,0 l/m 8,8 km/h (2 Bft) S-SW 0,00 h 0 W/m 9,7 C 14,9 C 8,8 km/h (2 Bft)
26.07.2010 06:00 15,8 C 66 % 1009,5 hPa 0,0 l/m 9,5 km/h (2 Bft) S-SW 0,00 h 0 W/m 9,5 C 14,3 C 9,5 km/h (2 Bft)
26.07.2010 07:00 16,2 C 67 % 1009,5 hPa 0,0 l/m 11,6 km/h (2 Bft) SW 0,00 h 0 W/m 10,2 C 13,9 C 11,6 km/h (2 Bft)
26.07.2010 08:00 17,6 C 70 % 1009,5 hPa 0,0 l/m 10,7 km/h (2 Bft) W-SW 0,00 h 0 W/m 12,0 C 15,8 C 10,7 km/h (2 Bft)
26.07.2010 09:00 17,5 C 78 % 1009,5 hPa 0,9 l/m 9,8 km/h (2 Bft) SW 0,00 h 0 W/m 13,5 C 16,0 C 9,8 km/h (2 Bft)
26.07.2010 10:00 17,5 C 82 % 1009,5 hPa 2,7 l/m 5,7 km/h (2 Bft) SW 0,00 h 0 W/m 14,5 C 17,4 C 5,7 km/h (2 Bft)
26.07.2010 11:00 18,5 C 83 % 1009,5 hPa 0,0 l/m 6,7 km/h (2 Bft) W 0,00 h 0 W/m 15,5 C 18,1 C 6,7 km/h (2 Bft)
26.07.2010 12:00 19,4 C 81 % 1009,5 hPa 0,0 l/m 7,1 km/h (2 Bft) NW 0,00 h 0 W/m 16,1 C 18,9 C 7,1 km/h (2 Bft)
26.07.2010 13:00 21,2 C 74 % 1009,5 hPa 0,0 l/m 10,0 km/h (2 Bft) N 0,00 h 0 W/m 16,3 C 19,9 C 10,0 km/h (2 Bft)
26.07.2010 14:00 22,1 C 66 % 1009,5 hPa 0,0 l/m 13,2 km/h (3 Bft) N 0,00 h 0 W/m 15,4 C 20,2 C 13,2 km/h (3 Bft)
26.07.2010 15:00 22,4 C 63 % 1009,5 hPa 0,0 l/m 12,4 km/h (2 Bft) N 0,00 h 0 W/m 15,0 C 20,7 C 12,4 km/h (2 Bft)
26.07.2010 16:00 21,8 C 64 % 1009,5 hPa 0,0 l/m 12,4 km/h (2 Bft) N-NO 0,00 h 0 W/m 14,7 C 20,1 C 12,4 km/h (2 Bft)
26.07.2010 17:00 21,4 C 66 % 1009,5 hPa 0,0 l/m 14,0 km/h (3 Bft) N 0,00 h 0 W/m 14,8 C 19,2 C 14,0 km/h (3 Bft)
26.07.2010 18:00 20,9 C 67 % 1009,5 hPa 0,0 l/m 14,4 km/h (3 Bft) N 0,00 h 0 W/m 14,6 C 18,5 C 14,4 km/h (3 Bft)
26.07.2010 19:00 20,5 C 69 % 1010,1 hPa 0,0 l/m 16,0 km/h (3 Bft) N 0,00 h 0 W/m 14,6 C 17,6 C 16,0 km/h (3 Bft)
26.07.2010 20:00 20,0 C 73 % 1010,5 hPa 0,0 l/m 13,0 km/h (3 Bft) N 0,00 h 0 W/m 15,1 C 17,8 C 13,0 km/h (3 Bft)
26.07.2010 21:00 19,2 C 75 % 1010,5 hPa 0,0 l/m 11,2 km/h (2 Bft) N-NO 0,00 h 0 W/m 14,7 C 17,4 C 11,2 km/h (2 Bft)
26.07.2010 22:00 18,9 C 77 % 1010,8 hPa 0,0 l/m 14,4 km/h (3 Bft) N-NO 0,00 h 0 W/m 14,8 C 16,1 C 14,4 km/h (3 Bft)
26.07.2010 23:00 18,8 C 78 % 1011,5 hPa 0,0 l/m 13,6 km/h (3 Bft) N-NO 0,00 h 0 W/m 14,8 C 16,2 C 13,6 km/h (3 Bft)
27.07.2010 00:00 18,8 C 77 % 1011,5 hPa 0,0 l/m 15,8 km/h (3 Bft) N-NO 0,00 h 0 W/m 14,8 C 15,8 C 15,8 km/h (3 Bft)
27.07.2010 01:00 18,4 C 77 % 1011,5 hPa 0,0 l/m 16,9 km/h (3 Bft) N-NO 0,00 h 0 W/m 14,3 C 14,9 C 16,9 km/h (3 Bft)
27.07.2010 02:00 18,0 C 77 % 1011,5 hPa 0,0 l/m 15,0 km/h (3 Bft) N-NO 0,00 h 0 W/m 13,8 C 14,9 C 15,0 km/h (3 Bft)
27.07.2010 03:00 17,7 C 76 % 1012,4 hPa 0,0 l/m 13,6 km/h (3 Bft) N-NO 0,00 h 0 W/m 13,5 C 14,9 C 13,6 km/h (3 Bft)
27.07.2010 04:00 17,4 C 78 % 1012,5 hPa 0,0 l/m 10,8 km/h (2 Bft) N-NO 0,00 h 0 W/m 13,6 C 15,6 C 10,8 km/h (2 Bft)
27.07.2010 05:00 17,1 C 79 % 1012,5 hPa 0,0 l/m 7,0 km/h (2 Bft) N-NO 0,00 h 0 W/m 13,5 C 16,4 C 7,0 km/h (2 Bft)
27.07.2010 06:00 16,7 C 81 % 1012,5 hPa 0,0 l/m 1,3 km/h (1 Bft) N-NO 0,00 h 0 W/m 13,4 C 16,7 C 1,3 km/h (1 Bft)
27.07.2010 07:00 17,0 C 82 % 1013,5 hPa 0,0 l/m 4,2 km/h (1 Bft) O-NO 0,00 h 0 W/m 13,8 C 16,9 C 4,2 km/h (1 Bft)
27.07.2010 08:00 17,9 C 80 % 1013,6 hPa 0,0 l/m 5,2 km/h (1 Bft) N-NO 0,00 h 0 W/m 14,3 C 17,7 C 5,2 km/h (1 Bft)
27.07.2010 09:00 18,6 C 76 % 1014,5 hPa 0,0 l/m 7,2 km/h (2 Bft) N 0,00 h 0 W/m 14,3 C 17,9 C 7,2 km/h (2 Bft)
27.07.2010 10:00 19,6 C 70 % 1014,5 hPa 0,0 l/m 12,3 km/h (2 Bft) N-NW 0,00 h 0 W/m 13,9 C 17,5 C 12,3 km/h (2 Bft)
27.07.2010 11:00 21,5 C 63 % 1014,5 hPa 0,0 l/m 13,3 km/h (3 Bft) N 0,00 h 0 W/m 14,1 C 19,4 C 13,3 km/h (3 Bft)
27.07.2010 12:00 22,5 C 59 % 1014,5 hPa 0,0 l/m 13,5 km/h (3 Bft) N 0,00 h 0 W/m 14,2 C 20,7 C 13,5 km/h (3 Bft)
27.07.2010 13:00 23,1 C 57 % 1014,5 hPa 0,0 l/m 13,0 km/h (3 Bft) N 0,00 h 0 W/m 14,1 C 21,4 C 13,0 km/h (3 Bft)
27.07.2010 14:00 23,2 C 56 % 1014,8 hPa 0,0 l/m 13,8 km/h (3 Bft) N 0,00 h 0 W/m 13,8 C 21,4 C 13,8 km/h (3 Bft)
27.07.2010 15:00 23,1 C 55 % 1015,2 hPa 0,0 l/m 13,3 km/h (3 Bft) N-NW 0,00 h 0 W/m 13,6 C 21,4 C 13,3 km/h (3 Bft)
27.07.2010 16:00 23,0 C 57 % 1014,5 hPa 0,0 l/m 11,6 km/h (2 Bft) N-NW 0,00 h 0 W/m 14,0 C 21,6 C 11,6 km/h (2 Bft)
27.07.2010 17:00 22,5 C 56 % 1014,5 hPa 0,0 l/m 11,9 km/h (2 Bft) N 0,00 h 0 W/m 13,3 C 21,0 C 11,9 km/h (2 Bft)
27.07.2010 18:00 21,8 C 57 % 1014,5 hPa 0,0 l/m 8,9 km/h (2 Bft) N-NW 0,00 h 0 W/m 12,9 C 21,0 C 8,9 km/h (2 Bft)
27.07.2010 19:00 21,1 C 59 % 1014,5 hPa 0,0 l/m 8,5 km/h (2 Bft) N 0,00 h 0 W/m 12,7 C 20,2 C 8,5 km/h (2 Bft)
27.07.2010 20:00 20,1 C 61 % 1014,5 hPa 0,0 l/m 0,5 km/h (0 Bft) N 0,00 h 0 W/m 12,4 C 20,1 C 0,5 km/h (0 Bft)
27.07.2010 21:00 18,6 C 66 % 1014,5 hPa 0,0 l/m 0,0 km/h (0 Bft) N 0,00 h 0 W/m 12,1 C 18,6 C 0,0 km/h (0 Bft)
27.07.2010 22:00 18,0 C 68 % 1014,5 hPa 0,0 l/m 0,0 km/h (0 Bft) N 0,00 h 0 W/m 12,0 C 18,0 C 0,0 km/h (0 Bft)
27.07.2010 23:00 17,2 C 70 % 1014,5 hPa 0,0 l/m 0,0 km/h (0 Bft) N 0,00 h 0 W/m 11,7 C 17,2 C 0,0 km/h (0 Bft)
28.07.2010 00:00 16,5 C 73 % 1014,0 hPa 0,0 l/m 0,0 km/h (0 Bft) N 0,00 h 0 W/m 11,7 C 16,5 C 0,0 km/h (0 Bft)
28.07.2010 01:00 16,1 C 75 % 1013,5 hPa 0,0 l/m 3,0 km/h (1 Bft) S-SO 0,00 h 0 W/m 11,7 C 16,1 C 3,0 km/h (1 Bft)
28.07.2010 02:00 16,3 C 76 % 1012,9 hPa 0,0 l/m 7,7 km/h (2 Bft) S-SO 0,00 h 0 W/m 12,0 C 15,6 C 7,7 km/h (2 Bft)
28.07.2010 03:00 16,7 C 75 % 1012,3 hPa 0,0 l/m 9,4 km/h (2 Bft) S 0,00 h 0 W/m 12,2 C 15,2 C 9,4 km/h (2 Bft)
28.07.2010 04:00 17,0 C 74 % 1011,5 hPa 0,0 l/m 8,8 km/h (2 Bft) S-SW 0,00 h 0 W/m 12,4 C 15,9 C 8,8 km/h (2 Bft)
28.07.2010 05:00 17,5 C 77 % 1011,5 hPa 0,0 l/m 6,7 km/h (2 Bft) SW 0,00 h 0 W/m 13,3 C 17,2 C 6,7 km/h (2 Bft)
28.07.2010 06:00 17,8 C 80 % 1010,6 hPa 2,1 l/m 7,0 km/h (2 Bft) SW 0,00 h 0 W/m 14,3 C 17,4 C 7,0 km/h (2 Bft)
28.07.2010 07:00 17,5 C 85 % 1010,5 hPa 1,8 l/m 6,7 km/h (2 Bft) SW 0,00 h 0 W/m 14,9 C 17,1 C 6,7 km/h (2 Bft)
28.07.2010 08:00 17,4 C 87 % 1010,5 hPa 3,6 l/m 5,9 km/h (2 Bft) SW 0,00 h 0 W/m 15,2 C 16,9 C 5,9 km/h (2 Bft)
28.07.2010 09:00 17,4 C 87 % 1010,5 hPa 1,2 l/m 19,4 km/h (3 Bft) N-NW 0,00 h 0 W/m 15,3 C 13,1 C 19,4 km/h (3 Bft)
28.07.2010 10:00 17,5 C 87 % 1010,5 hPa 0,6 l/m 16,9 km/h (3 Bft) N-NW 0,00 h 0 W/m 15,2 C 13,7 C 16,9 km/h (3 Bft)
28.07.2010 11:00 17,7 C 84 % 1010,5 hPa 0,0 l/m 20,1 km/h (4 Bft) NW 0,00 h 0 W/m 14,9 C 13,2 C 20,1 km/h (4 Bft)
28.07.2010 12:00 18,3 C 81 % 1010,5 hPa 0,0 l/m 21,1 km/h (4 Bft) NW 0,00 h 0 W/m 14,9 C 13,8 C 21,1 km/h (4 Bft)
28.07.2010 13:00 19,2 C 76 % 1010,5 hPa 0,0 l/m 22,6 km/h (4 Bft) NW 0,00 h 0 W/m 14,7 C 14,7 C 22,6 km/h (4 Bft)
28.07.2010 14:00 20,2 C 68 % 1010,5 hPa 0,0 l/m 23,3 km/h (4 Bft) NW 0,00 h 0 W/m 14,1 C 16,0 C 23,3 km/h (4 Bft)
28.07.2010 15:00 20,5 C 65 % 1010,5 hPa 0,0 l/m 27,2 km/h (5 Bft) NW 0,00 h 0 W/m 13,7 C 15,8 C 27,2 km/h (5 Bft)
28.07.2010 16:00 20,7 C 63 % 1010,5 hPa 0,0 l/m 24,9 km/h (4 Bft) N-NW 0,00 h 0 W/m 13,4 C 16,4 C 24,9 km/h (4 Bft)
28.07.2010 17:00 20,5 C 62 % 1010,5 hPa 0,0 l/m 24,6 km/h (4 Bft) N-NW 0,00 h 0 W/m 13,0 C 16,2 C 24,6 km/h (4 Bft)
28.07.2010 18:00 19,9 C 62 % 1010,1 hPa 0,0 l/m 21,3 km/h (4 Bft) N-NW 0,00 h 0 W/m 12,4 C 15,8 C 21,3 km/h (4 Bft)
28.07.2010 19:00 19,2 C 66 % 1010,4 hPa 0,0 l/m 19,7 km/h (3 Bft) N-NW 0,00 h 0 W/m 12,6 C 15,3 C 19,7 km/h (3 Bft)
28.07.2010 20:00 18,3 C 70 % 1009,5 hPa 0,0 l/m 17,2 km/h (3 Bft) N-NW 0,00 h 0 W/m 12,7 C 14,7 C 17,2 km/h (3 Bft)
28.07.2010 21:00 17,9 C 70 % 1009,5 hPa 0,0 l/m 16,1 km/h (3 Bft) N-NW 0,00 h 0 W/m 12,3 C 14,5 C 16,1 km/h (3 Bft)
28.07.2010 22:00 17,3 C 71 % 1009,5 hPa 0,0 l/m 12,9 km/h (3 Bft) NW 0,00 h 0 W/m 11,9 C 14,7 C 12,9 km/h (3 Bft)
28.07.2010 23:00 16,7 C 73 % 1009,5 hPa 0,0 l/m 13,8 km/h (3 Bft) NW 0,00 h 0 W/m 11,8 C 13,7 C 13,8 km/h (3 Bft)
29.07.2010 00:00 16,4 C 75 % 1008,7 hPa 0,0 l/m 14,9 km/h (3 Bft) NW 0,00 h 0 W/m 12,0 C 13,0 C 14,9 km/h (3 Bft)
29.07.2010 01:00 16,7 C 73 % 1008,5 hPa 0,0 l/m 19,9 km/h (4 Bft) NW 0,00 h 0 W/m 11,8 C 12,0 C 19,9 km/h (4 Bft)
29.07.2010 02:00 16,7 C 71 % 1008,1 hPa 0,0 l/m 17,2 km/h (3 Bft) NW 0,00 h 0 W/m 11,3 C 12,6 C 17,2 km/h (3 Bft)
29.07.2010 03:00 16,6 C 71 % 1007,5 hPa 0,0 l/m 19,9 km/h (4 Bft) NW 0,00 h 0 W/m 11,4 C 11,9 C 19,9 km/h (4 Bft)
29.07.2010 04:00 16,4 C 72 % 1007,5 hPa 0,0 l/m 19,5 km/h (3 Bft) NW 0,00 h 0 W/m 11,4 C 11,8 C 19,5 km/h (3 Bft)
29.07.2010 05:00 16,4 C 73 % 1006,6 hPa 0,0 l/m 18,8 km/h (3 Bft) NW 0,00 h 0 W/m 11,6 C 11,9 C 18,8 km/h (3 Bft)
29.07.2010 06:00 16,4 C 75 % 1006,5 hPa 0,0 l/m 20,1 km/h (4 Bft) NW 0,00 h 0 W/m 11,9 C 11,6 C 20,1 km/h (4 Bft)
29.07.2010 07:00 16,6 C 74 % 1006,5 hPa 0,0 l/m 17,0 km/h (3 Bft) NW 0,00 h 0 W/m 12,0 C 12,6 C 17,0 km/h (3 Bft)
29.07.2010 08:00 17,4 C 71 % 1006,5 hPa 0,0 l/m 18,8 km/h (3 Bft) NW 0,00 h 0 W/m 12,1 C 13,2 C 18,8 km/h (3 Bft)
29.07.2010 09:00 17,9 C 67 % 1006,5 hPa 0,0 l/m 17,6 km/h (3 Bft) N-NW 0,00 h 0 W/m 11,8 C 14,1 C 17,6 km/h (3 Bft)
29.07.2010 10:00 18,3 C 71 % 1005,7 hPa 0,3 l/m 17,6 km/h (3 Bft) NW 0,00 h 0 W/m 12,9 C 14,7 C 17,6 km/h (3 Bft)
29.07.2010 11:00 17,6 C 75 % 1005,6 hPa 0,0 l/m 22,1 km/h (4 Bft) N-NW 0,00 h 0 W/m 13,0 C 12,7 C 22,1 km/h (4 Bft)
29.07.2010 12:00 19,2 C 67 % 1005,9 hPa 0,0 l/m 23,7 km/h (4 Bft) N-NW 0,00 h 0 W/m 13,0 C 14,6 C 23,7 km/h (4 Bft)
29.07.2010 13:00 20,2 C 64 % 1006,5 hPa 0,0 l/m 26,3 km/h (4 Bft) N-NW 0,00 h 0 W/m 13,1 C 15,4 C 26,3 km/h (4 Bft)
29.07.2010 14:00 20,3 C 62 % 1006,5 hPa 0,0 l/m 23,6 km/h (4 Bft) N-NW 0,00 h 0 W/m 12,8 C 16,1 C 23,6 km/h (4 Bft)
29.07.2010 15:00 20,2 C 62 % 1006,5 hPa 0,0 l/m 26,3 km/h (4 Bft) N-NW 0,00 h 0 W/m 12,8 C 15,6 C 26,3 km/h (4 Bft)
29.07.2010 16:00 19,8 C 63 % 1006,5 hPa 0,0 l/m 30,4 km/h (5 Bft) N 0,00 h 0 W/m 12,7 C 14,4 C 30,4 km/h (5 Bft)
29.07.2010 17:00 19,6 C 65 % 1006,5 hPa 0,0 l/m 27,8 km/h (5 Bft) N-NW 0,00 h 0 W/m 12,8 C 14,5 C 27,8 km/h (5 Bft)
29.07.2010 18:00 19,1 C 64 % 1006,5 hPa 0,0 l/m 28,1 km/h (5 Bft) N-NW 0,00 h 0 W/m 12,2 C 13,8 C 28,1 km/h (5 Bft)
29.07.2010 19:00 18,6 C 66 % 1006,5 hPa 0,0 l/m 24,5 km/h (4 Bft) N-NW 0,00 h 0 W/m 12,0 C 13,6 C 24,5 km/h (4 Bft)
29.07.2010 20:00 17,8 C 70 % 1006,5 hPa 0,3 l/m 22,5 km/h (4 Bft) N-NW 0,00 h 0 W/m 12,2 C 12,8 C 22,5 km/h (4 Bft)
29.07.2010 21:00 17,0 C 77 % 1006,5 hPa 0,0 l/m 18,3 km/h (3 Bft) NW 0,00 h 0 W/m 12,8 C 12,8 C 18,3 km/h (3 Bft)
29.07.2010 22:00 17,1 C 77 % 1006,5 hPa 0,0 l/m 19,1 km/h (3 Bft) NW 0,00 h 0 W/m 13,0 C 12,8 C 19,1 km/h (3 Bft)
29.07.2010 23:00 17,0 C 76 % 1006,5 hPa 0,0 l/m 17,9 km/h (3 Bft) NW 0,00 h 0 W/m 12,7 C 12,9 C 17,9 km/h (3 Bft)
30.07.2010 00:00 16,7 C 76 % 1006,5 hPa 0,0 l/m 20,8 km/h (4 Bft) NW 0,00 h 0 W/m 12,5 C 11,8 C 20,8 km/h (4 Bft)
30.07.2010 01:00 16,8 C 74 % 1006,5 hPa 0,0 l/m 20,6 km/h (4 Bft) NW 0,00 h 0 W/m 12,0 C 12,0 C 20,6 km/h (4 Bft)
30.07.2010 02:00 16,8 C 74 % 1006,5 hPa 0,0 l/m 24,0 km/h (4 Bft) NW 0,00 h 0 W/m 12,1 C 11,3 C 24,0 km/h (4 Bft)
30.07.2010 03:00 16,6 C 70 % 1006,5 hPa 0,0 l/m 27,9 km/h (5 Bft) NW 0,00 h 0 W/m 11,1 C 10,4 C 27,9 km/h (5 Bft)
30.07.2010 04:00 16,6 C 68 % 1006,8 hPa 0,0 l/m 26,1 km/h (4 Bft) NW 0,00 h 0 W/m 10,8 C 10,7 C 26,1 km/h (4 Bft)
30.07.2010 05:00 16,6 C 65 % 1007,3 hPa 0,0 l/m 25,1 km/h (4 Bft) NW 0,00 h 0 W/m 10,0 C 10,8 C 25,1 km/h (4 Bft)
30.07.2010 06:00 16,6 C 64 % 1007,5 hPa 0,0 l/m 25,1 km/h (4 Bft) NW 0,00 h 0 W/m 9,8 C 10,8 C 25,1 km/h (4 Bft)
30.07.2010 07:00 16,6 C 67 % 1007,5 hPa 0,0 l/m 26,5 km/h (4 Bft) NW 0,00 h 0 W/m 10,4 C 10,5 C 26,5 km/h (4 Bft)
30.07.2010 08:00 17,1 C 67 % 1008,5 hPa 0,0 l/m 24,6 km/h (4 Bft) W-NW 0,00 h 0 W/m 10,9 C 11,6 C 24,6 km/h (4 Bft)
30.07.2010 09:00 17,3 C 69 % 1008,5 hPa 0,0 l/m 23,5 km/h (4 Bft) W-NW 0,00 h 0 W/m 11,7 C 12,1 C 23,5 km/h (4 Bft)
30.07.2010 10:00 17,8 C 69 % 1008,9 hPa 0,0 l/m 27,7 km/h (5 Bft) NW 0,00 h 0 W/m 11,9 C 11,9 C 27,7 km/h (5 Bft)
30.07.2010 11:00 17,0 C 75 % 1009,5 hPa 0,0 l/m 23,0 km/h (4 Bft) W 0,00 h 0 W/m 12,4 C 11,8 C 23,0 km/h (4 Bft)
30.07.2010 12:00 18,3 C 66 % 1009,5 hPa 0,0 l/m 27,8 km/h (5 Bft) W-NW 0,00 h 0 W/m 11,8 C 12,6 C 27,8 km/h (5 Bft)
30.07.2010 13:00 18,6 C 66 % 1010,5 hPa 0,0 l/m 25,6 km/h (4 Bft) W-NW 0,00 h 0 W/m 12,0 C 13,5 C 25,6 km/h (4 Bft)
30.07.2010 14:00 18,5 C 65 % 1010,6 hPa 0,3 l/m 27,7 km/h (5 Bft) W-NW 0,00 h 0 W/m 11,8 C 13,0 C 27,7 km/h (5 Bft)
30.07.2010 15:00 19,2 C 60 % 1011,5 hPa 0,0 l/m 26,0 km/h (4 Bft) W-NW 0,00 h 0 W/m 11,3 C 14,1 C 26,0 km/h (4 Bft)
30.07.2010 16:00 18,9 C 66 % 1011,5 hPa 0,0 l/m 22,3 km/h (4 Bft) W-NW 0,00 h 0 W/m 12,2 C 14,3 C 22,3 km/h (4 Bft)
30.07.2010 17:00 18,8 C 64 % 1012,0 hPa 0,0 l/m 22,9 km/h (4 Bft) NW 0,00 h 0 W/m 11,9 C 14,2 C 22,9 km/h (4 Bft)
30.07.2010 18:00 19,3 C 60 % 1012,5 hPa 0,0 l/m 27,1 km/h (5 Bft) NW 0,00 h 0 W/m 11,4 C 14,1 C 27,1 km/h (5 Bft)
30.07.2010 19:00 18,5 C 62 % 1012,5 hPa 0,0 l/m 20,2 km/h (4 Bft) NW 0,00 h 0 W/m 11,1 C 14,3 C 20,2 km/h (4 Bft)
30.07.2010 20:00 17,9 C 67 % 1012,5 hPa 0,0 l/m 17,7 km/h (3 Bft) NW 0,00 h 0 W/m 11,6 C 14,0 C 17,7 km/h (3 Bft)
30.07.2010 21:00 17,5 C 70 % 1012,5 hPa 0,0 l/m 15,0 km/h (3 Bft) W-NW 0,00 h 0 W/m 11,8 C 14,2 C 15,0 km/h (3 Bft)
30.07.2010 22:00 16,8 C 70 % 1012,5 hPa 0,0 l/m 9,4 km/h (2 Bft) W 0,00 h 0 W/m 11,4 C 15,3 C 9,4 km/h (2 Bft)
30.07.2010 23:00 15,8 C 72 % 1012,5 hPa 0,0 l/m 0,8 km/h (0 Bft) W 0,00 h 0 W/m 10,8 C 15,8 C 0,8 km/h (0 Bft)
31.07.2010 00:00 14,7 C 75 % 1012,5 hPa 0,0 l/m 0,1 km/h (0 Bft) N 0,00 h 0 W/m 10,2 C 14,7 C 0,1 km/h (0 Bft)
31.07.2010 01:00 13,9 C 77 % 1012,5 hPa 0,0 l/m 4,3 km/h (1 Bft) S 0,00 h 0 W/m 10,0 C 13,8 C 4,3 km/h (1 Bft)
31.07.2010 02:00 13,8 C 78 % 1012,5 hPa 0,0 l/m 8,0 km/h (2 Bft) S 0,00 h 0 W/m 10,1 C 12,8 C 8,0 km/h (2 Bft)
31.07.2010 03:00 13,5 C 79 % 1011,7 hPa 0,0 l/m 12,9 km/h (3 Bft) S 0,00 h 0 W/m 9,9 C 10,2 C 12,9 km/h (3 Bft)
31.07.2010 04:00 13,5 C 81 % 1011,5 hPa 0,0 l/m 13,1 km/h (3 Bft) S 0,00 h 0 W/m 10,3 C 10,2 C 13,1 km/h (3 Bft)
31.07.2010 05:00 13,8 C 81 % 1011,2 hPa 0,0 l/m 14,6 km/h (3 Bft) S 0,00 h 0 W/m 10,6 C 10,0 C 14,6 km/h (3 Bft)
31.07.2010 06:00 14,5 C 79 % 1010,5 hPa 0,0 l/m 13,0 km/h (3 Bft) S 0,00 h 0 W/m 10,9 C 11,3 C 13,0 km/h (3 Bft)
31.07.2010 07:00 15,6 C 77 % 1010,5 hPa 0,0 l/m 13,9 km/h (3 Bft) S-SW 0,00 h 0 W/m 11,6 C 12,5 C 13,9 km/h (3 Bft)
31.07.2010 08:00 16,9 C 74 % 1010,5 hPa 0,0 l/m 15,7 km/h (3 Bft) S-SW 0,00 h 0 W/m 12,2 C 13,3 C 15,7 km/h (3 Bft)
31.07.2010 09:00 18,6 C 69 % 1010,5 hPa 0,0 l/m 18,9 km/h (3 Bft) SW 0,00 h 0 W/m 12,9 C 14,7 C 18,9 km/h (3 Bft)
31.07.2010 10:00 20,4 C 63 % 1010,7 hPa 0,0 l/m 25,6 km/h (4 Bft) W-SW 0,00 h 0 W/m 13,1 C 15,8 C 25,6 km/h (4 Bft)
31.07.2010 11:00 22,0 C 60 % 1011,4 hPa 0,0 l/m 28,3 km/h (5 Bft) W 0,00 h 0 W/m 14,0 C 17,8 C 28,3 km/h (5 Bft)
31.07.2010 12:00 23,1 C 57 % 1011,4 hPa 0,0 l/m 26,5 km/h (4 Bft) W-SW 0,00 h 0 W/m 14,1 C 19,5 C 26,5 km/h (4 Bft)
31.07.2010 13:00 23,2 C 55 % 1010,5 hPa 0,0 l/m 24,6 km/h (4 Bft) W 0,00 h 0 W/m 13,5 C 19,8 C 24,6 km/h (4 Bft)
31.07.2010 14:00 22,7 C 58 % 1010,5 hPa 0,0 l/m 26,6 km/h (4 Bft) W-SW 0,00 h 0 W/m 14,0 C 19,0 C 26,6 km/h (4 Bft)
31.07.2010 15:00 21,6 C 62 % 1010,6 hPa 0,0 l/m 23,2 km/h (4 Bft) W-SW 0,00 h 0 W/m 14,1 C 17,9 C 23,2 km/h (4 Bft)
31.07.2010 16:00 21,0 C 67 % 1010,8 hPa 0,0 l/m 25,2 km/h (4 Bft) W 0,00 h 0 W/m 14,6 C 16,7 C 25,2 km/h (4 Bft)
31.07.2010 17:00 19,2 C 78 % 1011,3 hPa 0,3 l/m 22,0 km/h (4 Bft) SW 0,00 h 0 W/m 15,1 C 14,9 C 22,0 km/h (4 Bft)
31.07.2010 18:00 18,7 C 82 % 1010,5 hPa 0,3 l/m 14,4 km/h (3 Bft) SW 0,00 h 0 W/m 15,6 C 15,9 C 14,4 km/h (3 Bft)
31.07.2010 19:00 18,6 C 83 % 1010,6 hPa 0,6 l/m 7,9 km/h (2 Bft) S-SW 0,00 h 0 W/m 15,7 C 17,8 C 7,9 km/h (2 Bft)
31.07.2010 20:00 18,3 C 84 % 1010,5 hPa 0,0 l/m 4,8 km/h (1 Bft) SO 0,00 h 0 W/m 15,5 C 18,3 C 4,8 km/h (1 Bft)
31.07.2010 21:00 18,1 C 85 % 1010,5 hPa 0,0 l/m 5,9 km/h (2 Bft) SO 0,00 h 0 W/m 15,5 C 17,5 C 5,9 km/h (2 Bft)
31.07.2010 22:00 17,9 C 85 % 1010,5 hPa 0,0 l/m 3,6 km/h (1 Bft) SO 0,00 h 0 W/m 15,4 C 17,9 C 3,6 km/h (1 Bft)
31.07.2010 23:00 17,8 C 86 % 1010,5 hPa 0,0 l/m 7,9 km/h (2 Bft) SO 0,00 h 0 W/m 15,4 C 16,9 C 7,9 km/h (2 Bft)
01.08.2010 00:00 17,8 C 88 % 1009,7 hPa 0,6 l/m 14,5 km/h (3 Bft) SW 0,00 h 0 W/m 15,7 C 14,8 C 14,5 km/h (3 Bft)
01.08.2010 01:00 17,8 C 88 % 1009,5 hPa 0,0 l/m 10,4 km/h (2 Bft) S-SW 0,00 h 0 W/m 15,8 C 16,1 C 10,4 km/h (2 Bft)
01.08.2010 02:00 17,6 C 88 % 1009,5 hPa 0,0 l/m 10,1 km/h (2 Bft) SW 0,00 h 0 W/m 15,6 C 16,0 C 10,1 km/h (2 Bft)
01.08.2010 03:00 17,4 C 88 % 1009,5 hPa 0,0 l/m 7,0 km/h (2 Bft) SW 0,00 h 0 W/m 15,4 C 16,9 C 7,0 km/h (2 Bft)
01.08.2010 04:00 17,1 C 88 % 1009,5 hPa 0,0 l/m 4,4 km/h (1 Bft) S-SW 0,00 h 0 W/m 15,0 C 17,0 C 4,4 km/h (1 Bft)
01.08.2010 05:00 16,8 C 87 % 1009,5 hPa 0,3 l/m 1,9 km/h (1 Bft) S-SW 0,00 h 0 W/m 14,7 C 16,8 C 1,9 km/h (1 Bft)
01.08.2010 06:00 17,0 C 89 % 1009,5 hPa 0,0 l/m 1,8 km/h (1 Bft) S 0,00 h 0 W/m 15,2 C 17,0 C 1,8 km/h (1 Bft)
01.08.2010 07:00 17,5 C 90 % 1009,5 hPa 0,0 l/m 2,7 km/h (1 Bft) S-SW 0,00 h 0 W/m 15,8 C 17,5 C 2,7 km/h (1 Bft)
01.08.2010 08:00 18,3 C 91 % 1009,8 hPa 0,0 l/m 6,1 km/h (2 Bft) S-SW 0,00 h 0 W/m 16,7 C 18,0 C 6,1 km/h (2 Bft)
01.08.2010 09:00 19,5 C 88 % 1010,3 hPa 0,0 l/m 9,6 km/h (2 Bft) SW 0,00 h 0 W/m 17,4 C 18,2 C 9,6 km/h (2 Bft)
01.08.2010 10:00 20,7 C 80 % 1010,3 hPa 0,0 l/m 15,0 km/h (3 Bft) W-SW 0,00 h 0 W/m 17,1 C 18,1 C 15,0 km/h (3 Bft)
01.08.2010 11:00 21,8 C 76 % 1010,5 hPa 0,0 l/m 14,7 km/h (3 Bft) W 0,00 h 0 W/m 17,3 C 19,6 C 14,7 km/h (3 Bft)
01.08.2010 12:00 23,4 C 69 % 1010,5 hPa 0,0 l/m 22,3 km/h (4 Bft) W-SW 0,00 h 0 W/m 17,4 C 20,3 C 22,3 km/h (4 Bft)
01.08.2010 13:00 22,5 C 70 % 1010,5 hPa 0,0 l/m 18,2 km/h (3 Bft) NW 0,00 h 0 W/m 16,7 C 19,7 C 18,2 km/h (3 Bft)
01.08.2010 14:00 22,0 C 69 % 1010,5 hPa 0,0 l/m 17,5 km/h (3 Bft) NW 0,00 h 0 W/m 16,1 C 19,2 C 17,5 km/h (3 Bft)
01.08.2010 15:00 21,8 C 70 % 1011,2 hPa 0,0 l/m 16,6 km/h (3 Bft) N 0,00 h 0 W/m 16,0 C 19,1 C 16,6 km/h (3 Bft)
01.08.2010 16:00 21,0 C 73 % 1011,5 hPa 0,0 l/m 14,5 km/h (3 Bft) N 0,00 h 0 W/m 16,0 C 18,6 C 14,5 km/h (3 Bft)
01.08.2010 17:00 21,2 C 72 % 1011,3 hPa 0,0 l/m 16,6 km/h (3 Bft) N-NO 0,00 h 0 W/m 15,9 C 18,4 C 16,6 km/h (3 Bft)
01.08.2010 18:00 20,4 C 73 % 1011,5 hPa 0,0 l/m 13,4 km/h (3 Bft) N 0,00 h 0 W/m 15,4 C 18,2 C 13,4 km/h (3 Bft)
01.08.2010 19:00 19,8 C 74 % 1011,5 hPa 0,0 l/m 13,0 km/h (3 Bft) N-NO 0,00 h 0 W/m 14,9 C 17,6 C 13,0 km/h (3 Bft)
01.08.2010 20:00 19,2 C 75 % 1011,5 hPa 0,0 l/m 9,1 km/h (2 Bft) N 0,00 h 0 W/m 14,7 C 18,1 C 9,1 km/h (2 Bft)
01.08.2010 21:00 18,8 C 75 % 1011,5 hPa 0,0 l/m 6,3 km/h (2 Bft) N-NO 0,00 h 0 W/m 14,3 C 18,5 C 6,3 km/h (2 Bft)
01.08.2010 22:00 18,6 C 76 % 1011,7 hPa 0,0 l/m 4,4 km/h (1 Bft) N-NO 0,00 h 0 W/m 14,3 C 18,6 C 4,4 km/h (1 Bft)
01.08.2010 23:00 18,5 C 77 % 1011,8 hPa 0,0 l/m 1,5 km/h (1 Bft) N-NO 0,00 h 0 W/m 14,5 C 18,5 C 1,5 km/h (1 Bft)
Min-Datum _ 31.07.10 31.07.10 29.07.10 - 26.07.10 - - - 26.07.10 31.07.10 26.07.10
_ Min-Zeit 03:36 13:06 10:11 - 00:00 - - - 06:41 05:36 00:00
Minimum _ 13,4 C 53 % 1005,5 hPa - 0,0 km/h (0 Bft) - - - 9,4 C 8,6 C 0,0 km/h (0 Bft)
Max-Datum _ 31.07.10 01.08.10 27.07.10 28.07.10 30.07.10 - 26.07.10 26.07.10 01.08.10 27.07.10 30.07.10
_ Max-Zeit 12:46 08:21 14:00 08:06 13:16 - 00:00 00:00 11:35 16:31 13:16
Maximum _ 24,0 C 91 % 1015,5 hPa 3,6 l/m 39,3 km/h
W-NW (6 Bft)
- 0,00 h 0 W/m 18,0 C 22,8 C 39,3 km/h
W-NW (6 Bft)
Durchschnitt _ 18,5 C 72 % 1010,4 hPa #15,9 l/m 14,7 km/h (3 Bft) NW #0 min. 0 W/m 13,2 C 15,8 C 14,7 km/h (3 Bft)
copyright by Holger Just